Time,TemperatureF,DewpointF,PressureIn,WindDirection,WindDirectionDegrees,WindSpeedMPH,WindSpeedGustMPH,Humidity,HourlyPrecipIn,Conditions,Clouds,dailyrainin,SoftwareType,DateUTC
2013-02-16 00:00:00,36.7,33.7,30.10,North,1,0.0,0.0,89,0.00,CLR,SKC,0.00,WeatherDisplay:10.37,2013-02-15 23:00:00,
2013-02-16 00:05:00,36.7,33.7,30.10,North,1,0.0,0.0,89,0.00,CLR,SKC,0.00,WeatherDisplay:10.37,2013-02-15 23:05:00,
2013-02-16 00:14:00,36.7,33.7,30.10,North,1,0.0,0.0,89,0.00,CLR,SKC,0.00,WeatherDisplay:10.37,2013-02-15 23:14:00,
2013-02-16 00:20:00,36.6,33.6,30.10,North,1,0.0,0.0,89,0.00,CLR,SKC,0.00,WeatherDisplay:10.37,2013-02-15 23:20:00,
2013-02-16 00:25:00,36.5,33.6,30.10,North,1,0.0,0.0,89,0.00,CLR,SKC,0.00,WeatherDisplay:10.37,2013-02-15 23:25:00,
2013-02-16 00:30:00,36.5,33.6,30.11,North,1,0.0,0.0,89,0.00,CLR,SKC,0.00,WeatherDisplay:10.37,2013-02-15 23:30:00,
2013-02-16 00:40:00,36.3,33.4,30.11,North,1,0.0,0.0,89,0.00,CLR,SKC,0.00,WeatherDisplay:10.37,2013-02-15 23:40:00,
2013-02-16 00:50:00,36.1,33.2,30.11,North,1,0.0,0.0,89,0.00,CLR,SKC,0.00,WeatherDisplay:10.37,2013-02-15 23:50:00,
2013-02-16 00:55:00,36.0,33.0,30.11,North,1,0.0,0.0,89,0.00,CLR,SKC,0.00,WeatherDisplay:10.37,2013-02-15 23:55:00,
2013-02-16 01:04:00,35.8,32.9,30.11,North,1,0.0,0.0,89,0.00,CLR,SKC,0.00,WeatherDisplay:10.37,2013-02-16 00:04:00,
2013-02-16 01:10:00,35.8,32.9,30.11,North,1,0.0,0.0,89,0.00,CLR,SKC,0.00,WeatherDisplay:10.37,2013-02-16 00:10:00,
2013-02-16 01:20:00,35.8,32.9,30.11,North,1,0.0,0.0,89,0.00,CLR,SKC,0.00,WeatherDisplay:10.37,2013-02-16 00:20:00,
2013-02-16 01:30:00,35.8,33.1,30.11,North,1,0.0,0.0,90,0.00,CLR,SKC,0.00,WeatherDisplay:10.37,2013-02-16 00:30:00,
2013-02-16 01:40:00,35.8,33.1,30.11,North,1,0.0,0.0,90,0.00,CLR,SKC,0.00,WeatherDisplay:10.37,2013-02-16 00:40:00,
2013-02-16 01:45:00,36.0,33.3,30.11,North,1,0.0,0.0,90,0.00,CLR,SKC,0.00,WeatherDisplay:10.37,2013-02-16 00:45:00,
2013-02-16 01:50:00,36.0,33.3,30.11,North,1,0.0,0.0,90,0.00,CLR,SKC,0.00,WeatherDisplay:10.37,2013-02-16 00:50:00,
2013-02-16 02:00:00,35.8,33.1,30.11,North,1,0.0,0.0,90,0.00,CLR,SKC,0.00,WeatherDisplay:10.37,2013-02-16 01:00:00,
2013-02-16 02:05:00,35.8,33.1,30.11,North,1,0.0,0.0,90,0.00,CLR,SKC,0.00,WeatherDisplay:10.37,2013-02-16 01:05:00,
2013-02-16 02:15:00,35.6,33.0,30.11,North,1,0.0,0.0,90,0.00,CLR,SKC,0.00,WeatherDisplay:10.37,2013-02-16 01:15:00,
2013-02-16 02:20:00,35.4,32.8,30.11,North,1,0.0,0.0,90,0.00,CLR,SKC,0.00,WeatherDisplay:10.37,2013-02-16 01:20:00,
2013-02-16 02:25:00,35.4,32.8,30.11,North,1,0.0,0.0,90,0.00,CLR,SKC,0.00,WeatherDisplay:10.37,2013-02-16 01:25:00,
2013-02-16 02:30:00,35.4,32.8,30.11,North,1,0.0,0.0,90,0.00,CLR,SKC,0.00,WeatherDisplay:10.37,2013-02-16 01:30:00,
2013-02-16 02:40:00,35.4,32.8,30.11,North,1,0.0,0.0,90,0.00,CLR,SKC,0.00,WeatherDisplay:10.37,2013-02-16 01:40:00,
2013-02-16 02:45:00,35.4,32.8,30.11,North,1,0.0,0.0,90,0.00,CLR,SKC,0.00,WeatherDisplay:10.37,2013-02-16 01:45:00,
2013-02-16 02:55:00,35.4,32.8,30.11,North,1,0.0,0.0,90,0.00,CLR,SKC,0.00,WeatherDisplay:10.37,2013-02-16 01:55:00,
2013-02-16 03:00:00,35.4,32.8,30.11,North,1,0.0,0.0,90,0.00,CLR,SKC,0.00,WeatherDisplay:10.37,2013-02-16 02:00:00,
2013-02-16 03:05:00,35.2,32.6,30.11,North,1,0.0,0.0,90,0.00,CLR,SKC,0.00,WeatherDisplay:10.37,2013-02-16 02:05:00,
2013-02-16 03:15:00,35.4,32.8,30.11,North,1,0.0,0.0,90,0.00,CLR,SKC,0.00,WeatherDisplay:10.37,2013-02-16 02:15:00,
2013-02-16 03:20:00,35.4,32.8,30.11,North,1,0.0,0.0,90,0.00,CLR,SKC,0.00,WeatherDisplay:10.37,2013-02-16 02:20:00,
2013-02-16 03:30:00,35.4,32.8,30.10,North,1,0.0,0.0,90,0.00,CLR,SKC,0.00,WeatherDisplay:10.37,2013-02-16 02:30:00,
2013-02-16 03:35:00,35.4,32.8,30.10,North,1,0.0,0.0,90,0.00,CLR,SKC,0.00,WeatherDisplay:10.37,2013-02-16 02:35:00,
2013-02-16 03:40:00,35.4,32.8,30.10,North,1,0.0,0.0,90,0.00,CLR,SKC,0.00,WeatherDisplay:10.37,2013-02-16 02:40:00,
2013-02-16 03:45:00,35.4,32.8,30.11,North,1,0.0,0.0,90,0.00,CLR,SKC,0.00,WeatherDisplay:10.37,2013-02-16 02:45:00,
2013-02-16 03:50:00,35.4,32.8,30.10,North,1,0.0,0.0,90,0.00,CLR,SKC,0.00,WeatherDisplay:10.37,2013-02-16 02:50:00,
2013-02-16 04:00:00,35.2,32.6,30.11,North,1,0.0,0.0,90,0.00,CLR,SKC,0.00,WeatherDisplay:10.37,2013-02-16 03:00:00,
2013-02-16 04:10:00,35.2,32.6,30.11,North,1,0.0,0.0,90,0.00,CLR,SKC,0.00,WeatherDisplay:10.37,2013-02-16 03:10:00,
2013-02-16 04:15:00,35.2,32.6,30.11,North,1,0.0,0.0,90,0.00,CLR,SKC,0.00,WeatherDisplay:10.37,2013-02-16 03:15:00,
2013-02-16 04:20:00,35.0,32.3,30.11,North,1,0.0,0.0,90,0.00,CLR,SKC,0.00,WeatherDisplay:10.37,2013-02-16 03:20:00,
2013-02-16 04:25:00,34.9,32.2,30.11,North,1,0.0,0.0,90,0.00,CLR,SKC,0.00,WeatherDisplay:10.37,2013-02-16 03:25:00,
2013-02-16 04:35:00,34.9,32.2,30.11,North,1,0.0,0.0,90,0.00,CLR,SKC,0.00,WeatherDisplay:10.37,2013-02-16 03:35:00,
2013-02-16 04:45:00,34.7,32.1,30.11,North,1,0.0,0.0,90,0.00,CLR,SKC,0.00,WeatherDisplay:10.37,2013-02-16 03:45:00,
2013-02-16 04:50:00,34.5,31.9,30.12,North,1,0.0,0.0,90,0.00,CLR,SKC,0.00,WeatherDisplay:10.37,2013-02-16 03:50:00,
2013-02-16 04:55:00,34.3,31.7,30.12,North,1,0.0,0.0,90,0.00,CLR,SKC,0.00,WeatherDisplay:10.37,2013-02-16 03:55:00,
2013-02-16 05:00:00,34.3,31.7,30.12,North,1,0.0,0.0,90,0.00,CLR,SKC,0.00,WeatherDisplay:10.37,2013-02-16 04:00:00,
2013-02-16 05:10:00,34.3,31.7,30.12,North,1,0.0,0.0,90,0.00,CLR,SKC,0.00,WeatherDisplay:10.37,2013-02-16 04:10:00,
2013-02-16 05:20:00,34.3,31.7,30.12,North,1,0.0,0.0,90,0.00,CLR,SKC,0.00,WeatherDisplay:10.37,2013-02-16 04:20:00,
2013-02-16 05:25:00,34.3,31.7,30.12,North,1,0.0,0.0,90,0.00,CLR,SKC,0.00,WeatherDisplay:10.37,2013-02-16 04:25:00,
2013-02-16 05:35:00,34.3,31.7,30.11,North,1,0.0,0.0,90,0.00,CLR,SKC,0.00,WeatherDisplay:10.37,2013-02-16 04:35:00,
2013-02-16 05:40:00,34.3,31.7,30.12,North,1,0.0,0.0,90,0.00,CLR,SKC,0.00,WeatherDisplay:10.37,2013-02-16 04:40:00,
2013-02-16 05:50:00,34.3,31.7,30.12,North,1,0.0,0.0,90,0.00,CLR,SKC,0.00,WeatherDisplay:10.37,2013-02-16 04:50:00,
2013-02-16 05:55:00,34.2,31.6,30.12,North,1,0.0,0.0,90,0.00,CLR,SKC,0.00,WeatherDisplay:10.37,2013-02-16 04:55:00,
2013-02-16 06:05:00,34.0,31.4,30.12,North,1,0.0,0.0,90,0.00,CLR,SKC,0.00,WeatherDisplay:10.37,2013-02-16 05:05:00,
2013-02-16 06:10:00,34.2,31.5,30.12,North,1,0.0,0.0,90,0.00,CLR,SKC,0.00,WeatherDisplay:10.37,2013-02-16 05:10:00,
2013-02-16 06:15:00,34.0,31.4,30.12,North,1,0.0,0.0,90,0.00,CLR,SKC,0.00,WeatherDisplay:10.37,2013-02-16 05:15:00,
2013-02-16 06:20:00,34.0,31.4,30.13,North,1,0.0,0.0,90,0.00,CLR,SKC,0.00,WeatherDisplay:10.37,2013-02-16 05:20:00,
2013-02-16 06:30:00,33.8,31.2,30.12,North,1,0.0,0.0,90,0.00,CLR,SKC,0.00,WeatherDisplay:10.37,2013-02-16 05:30:00,
2013-02-16 06:35:00,33.8,31.2,30.12,North,1,0.0,0.0,90,0.00,CLR,SKC,0.00,WeatherDisplay:10.37,2013-02-16 05:35:00,
2013-02-16 06:40:00,33.6,31.0,30.12,North,1,0.0,0.0,90,0.00,CLR,SKC,0.00,WeatherDisplay:10.37,2013-02-16 05:40:00,
2013-02-16 06:50:00,33.7,31.1,30.13,North,1,0.0,0.0,90,0.00,CLR,SKC,0.00,WeatherDisplay:10.37,2013-02-16 05:50:00,
2013-02-16 07:00:00,33.8,31.2,30.13,North,1,0.0,0.0,90,0.00,CLR,SKC,0.00,WeatherDisplay:10.37,2013-02-16 06:00:00,
2013-02-16 07:10:00,34.0,31.4,30.13,North,1,0.0,0.0,90,0.00,CLR,SKC,0.00,WeatherDisplay:10.37,2013-02-16 06:10:00,
2013-02-16 07:20:00,34.0,31.4,30.14,North,1,0.0,0.0,90,0.00,BKN,SKC,0.00,WeatherDisplay:10.37,2013-02-16 06:20:00,
2013-02-16 07:30:00,34.2,31.5,30.14,North,1,0.0,0.0,90,0.00,BKN,SKC,0.00,WeatherDisplay:10.37,2013-02-16 06:30:00,
2013-02-16 07:40:00,34.3,32.0,30.14,North,1,0.0,0.0,91,0.00,BKN,SKC,0.00,WeatherDisplay:10.37,2013-02-16 06:40:00,
2013-02-16 07:45:00,34.3,31.7,30.14,North,1,0.0,0.0,90,0.00,CLR,SKC,0.00,WeatherDisplay:10.37,2013-02-16 06:45:00,
2013-02-16 07:50:00,34.3,32.0,30.14,North,1,0.0,0.0,91,0.00,CLR,SKC,0.00,WeatherDisplay:10.37,2013-02-16 06:50:00,
2013-02-16 08:00:00,34.3,32.0,30.14,North,1,0.0,0.0,91,0.00,CLR,SKC,0.00,WeatherDisplay:10.37,2013-02-16 07:00:00,
2013-02-16 08:10:00,34.5,32.2,30.14,North,1,0.0,0.0,91,0.00,CLR,SKC,0.00,WeatherDisplay:10.37,2013-02-16 07:10:00,
2013-02-16 08:20:00,34.7,32.3,30.14,North,1,0.0,0.0,91,0.00,BKN,SKC,0.00,WeatherDisplay:10.37,2013-02-16 07:20:00,
2013-02-16 08:25:00,34.7,32.3,30.15,North,1,0.0,0.0,91,0.00,BKN,SKC,0.00,WeatherDisplay:10.37,2013-02-16 07:25:00,
2013-02-16 08:30:00,34.9,32.5,30.15,North,1,0.0,0.0,91,0.00,BKN,SKC,0.00,WeatherDisplay:10.37,2013-02-16 07:30:00,
2013-02-16 08:35:00,34.9,32.5,30.15,North,1,0.0,0.0,91,0.00,BKN,SKC,0.00,WeatherDisplay:10.37,2013-02-16 07:35:00,
2013-02-16 08:40:00,35.2,32.9,30.15,North,1,0.0,0.0,91,0.00,BKN,SKC,0.00,WeatherDisplay:10.37,2013-02-16 07:40:00,
2013-02-16 08:50:00,35.2,32.9,30.15,North,1,0.0,0.0,91,0.00,BKN,SKC,0.00,WeatherDisplay:10.37,2013-02-16 07:50:00,
2013-02-16 09:00:00,35.4,33.1,30.15,North,1,0.0,0.0,91,0.00,BKN,SKC,0.00,WeatherDisplay:10.37,2013-02-16 08:00:00,
2013-02-16 09:05:00,35.8,33.4,30.15,North,1,0.0,0.0,91,0.00,BKN,SKC,0.00,WeatherDisplay:10.37,2013-02-16 08:05:00,
2013-02-16 09:15:00,36.1,33.8,30.15,North,1,0.0,0.0,91,0.00,BKN,SKC,0.00,WeatherDisplay:10.37,2013-02-16 08:15:00,
2013-02-16 09:20:00,36.3,33.7,30.16,North,1,0.0,0.0,90,0.00,BKN,SKC,0.00,WeatherDisplay:10.37,2013-02-16 08:20:00,
2013-02-16 09:25:00,36.3,33.7,30.16,North,1,0.0,0.0,90,0.00,BKN,SKC,0.00,WeatherDisplay:10.37,2013-02-16 08:25:00,
2013-02-16 09:35:00,36.7,34.0,30.16,North,1,0.0,0.0,90,0.00,BKN,SKC,0.00,WeatherDisplay:10.37,2013-02-16 08:35:00,
2013-02-16 09:45:00,37.0,34.7,30.16,North,1,0.0,0.0,91,0.00,CLR,SKC,0.00,WeatherDisplay:10.37,2013-02-16 08:45:00,
2013-02-16 09:50:00,37.2,34.8,30.16,North,1,0.0,0.0,91,0.00,CLR,SKC,0.00,WeatherDisplay:10.37,2013-02-16 08:50:00,
2013-02-16 10:00:00,37.6,34.9,30.17,North,1,0.0,0.0,90,0.00,CLR,SKC,0.00,WeatherDisplay:10.37,2013-02-16 09:00:00,
2013-02-16 10:05:00,37.8,35.1,30.17,North,1,0.0,0.0,90,0.00,CLR,SKC,0.00,WeatherDisplay:10.37,2013-02-16 09:05:00,
2013-02-16 10:15:00,38.1,35.4,30.17,North,1,0.0,0.0,90,0.00,CLR,SKC,0.00,WeatherDisplay:10.37,2013-02-16 09:15:00,
2013-02-16 10:20:00,38.2,35.3,30.17,North,1,0.0,0.0,89,0.00,CLR,SKC,0.00,WeatherDisplay:10.37,2013-02-16 09:20:00,
2013-02-16 10:30:00,38.5,35.5,30.17,North,1,0.0,0.0,89,0.00,CLR,SKC,0.00,WeatherDisplay:10.37,2013-02-16 09:30:00,
2013-02-16 10:40:00,39.4,36.4,30.17,North,1,0.0,0.0,89,0.00,CLR,SKC,0.00,WeatherDisplay:10.37,2013-02-16 09:40:00,
2013-02-16 10:45:00,39.5,36.2,30.17,North,1,0.0,0.0,88,0.00,CLR,SKC,0.00,WeatherDisplay:10.37,2013-02-16 09:45:00,
2013-02-16 10:55:00,39.9,36.7,30.17,North,1,0.0,0.0,88,0.00,CLR,SKC,0.00,WeatherDisplay:10.37,2013-02-16 09:55:00,
2013-02-16 11:00:00,40.1,36.8,30.17,North,1,0.0,0.0,88,0.00,CLR,SKC,0.00,WeatherDisplay:10.37,2013-02-16 10:00:00,
2013-02-16 11:10:00,40.5,36.9,30.17,North,1,0.0,0.0,87,0.00,CLR,SKC,0.00,WeatherDisplay:10.37,2013-02-16 10:10:00,
2013-02-16 11:15:00,40.8,37.0,30.17,North,1,0.0,0.0,86,0.00,CLR,SKC,0.00,WeatherDisplay:10.37,2013-02-16 10:15:00,
2013-02-16 11:20:00,41.2,37.3,30.17,North,1,0.0,0.0,86,0.00,CLR,SKC,0.00,WeatherDisplay:10.37,2013-02-16 10:20:00,
2013-02-16 11:30:00,41.5,37.4,30.16,North,1,0.0,0.0,85,0.00,CLR,SKC,0.00,WeatherDisplay:10.37,2013-02-16 10:30:00,
2013-02-16 11:35:00,42.0,37.8,30.16,North,1,0.0,0.0,85,0.00,CLR,SKC,0.00,WeatherDisplay:10.37,2013-02-16 10:35:00,
2013-02-16 11:40:00,42.4,37.9,30.16,North,1,0.0,0.0,84,0.00,CLR,SKC,0.00,WeatherDisplay:10.37,2013-02-16 10:40:00,
2013-02-16 11:50:00,42.4,37.6,30.16,North,1,0.0,0.0,83,0.00,CLR,SKC,0.00,WeatherDisplay:10.37,2013-02-16 10:50:00,
2013-02-16 11:55:00,42.4,37.6,30.16,North,1,0.0,0.0,83,0.00,CLR,SKC,0.00,WeatherDisplay:10.37,2013-02-16 10:55:00,
2013-02-16 12:00:00,42.8,38.0,30.16,North,1,0.0,0.0,83,0.00,CLR,SKC,0.00,WeatherDisplay:10.37,2013-02-16 11:00:00,
2013-02-16 12:05:00,43.0,37.9,30.16,North,1,0.0,0.0,82,0.00,CLR,SKC,0.00,WeatherDisplay:10.37,2013-02-16 11:05:00,
2013-02-16 12:15:00,43.0,37.5,30.15,North,1,0.0,0.0,81,0.00,CLR,SKC,0.00,WeatherDisplay:10.37,2013-02-16 11:15:00,
2013-02-16 12:20:00,43.2,37.7,30.16,North,1,0.0,0.0,81,0.00,CLR,SKC,0.00,WeatherDisplay:10.37,2013-02-16 11:20:00,
2013-02-16 12:30:00,43.9,38.1,30.15,North,1,0.0,0.0,80,0.00,CLR,SKC,0.00,WeatherDisplay:10.37,2013-02-16 11:30:00,
2013-02-16 12:35:00,43.9,38.1,30.15,North,1,0.0,0.0,80,0.00,CLR,SKC,0.00,WeatherDisplay:10.37,2013-02-16 11:35:00,
2013-02-16 12:45:00,44.9,38.8,30.15,North,1,0.0,0.0,79,0.00,CLR,SKC,0.00,WeatherDisplay:10.37,2013-02-16 11:45:00,
2013-02-16 12:55:00,45.5,38.7,30.15,North,1,0.0,0.0,77,0.00,CLR,SKC,0.00,WeatherDisplay:10.37,2013-02-16 11:55:00,
2013-02-16 13:00:00,45.2,38.5,30.15,North,1,0.0,0.0,77,0.00,CLR,SKC,0.00,WeatherDisplay:10.37,2013-02-16 12:00:00,
2013-02-16 13:05:00,45.1,38.4,30.14,North,1,0.0,0.0,77,0.00,CLR,SKC,0.00,WeatherDisplay:10.37,2013-02-16 12:05:00,
2013-02-16 13:15:00,45.2,38.1,30.14,North,1,0.0,0.0,76,0.00,CLR,SKC,0.00,WeatherDisplay:10.37,2013-02-16 12:15:00,
2013-02-16 13:20:00,45.6,38.5,30.14,North,1,0.0,0.0,76,0.00,CLR,SKC,0.00,WeatherDisplay:10.37,2013-02-16 12:20:00,
2013-02-16 13:30:00,46.1,38.6,30.14,North,1,0.0,0.0,75,0.00,CLR,SKC,0.00,WeatherDisplay:10.37,2013-02-16 12:30:00,
2013-02-16 13:35:00,46.2,38.7,30.14,North,1,0.0,0.0,75,0.00,CLR,SKC,0.00,WeatherDisplay:10.37,2013-02-16 12:35:00,
2013-02-16 13:40:00,46.6,38.7,30.14,North,1,0.0,0.0,74,0.00,CLR,SKC,0.00,WeatherDisplay:10.37,2013-02-16 12:40:00,
2013-02-16 13:50:00,46.4,38.2,30.14,North,1,0.0,0.0,73,0.00,CLR,SKC,0.00,WeatherDisplay:10.37,2013-02-16 12:50:00,
2013-02-16 14:00:00,46.9,38.4,30.14,North,1,0.0,0.0,72,0.00,CLR,SKC,0.00,WeatherDisplay:10.37,2013-02-16 13:00:00,
2013-02-16 14:10:00,46.8,38.2,30.13,North,1,0.0,0.0,72,0.00,CLR,SKC,0.00,WeatherDisplay:10.37,2013-02-16 13:10:00,
2013-02-16 14:15:00,46.8,37.9,30.13,North,1,0.0,0.0,71,0.00,CLR,SKC,0.00,WeatherDisplay:10.37,2013-02-16 13:15:00,
2013-02-16 14:20:00,46.9,37.7,30.13,North,1,0.0,0.0,70,0.00,CLR,SKC,0.00,WeatherDisplay:10.37,2013-02-16 13:20:00,
2013-02-16 14:30:00,46.6,37.7,30.13,North,1,0.0,0.0,71,0.00,CLR,SKC,0.00,WeatherDisplay:10.37,2013-02-16 13:30:00,
2013-02-16 14:35:00,46.2,37.3,30.14,North,1,0.0,0.0,71,0.00,CLR,SKC,0.00,WeatherDisplay:10.37,2013-02-16 13:35:00,
2013-02-16 14:40:00,46.0,37.2,30.14,North,1,0.0,0.0,71,0.00,CLR,SKC,0.00,WeatherDisplay:10.37,2013-02-16 13:40:00,
2013-02-16 14:50:00,45.7,36.8,30.14,North,1,0.0,0.0,71,0.00,FEW,SKC,0.00,WeatherDisplay:10.37,2013-02-16 13:50:00,
2013-02-16 14:55:00,45.7,36.8,30.14,North,1,0.0,0.0,71,0.00,FEW,SKC,0.00,WeatherDisplay:10.37,2013-02-16 13:55:00,
2013-02-16 15:00:00,45.7,36.4,30.14,North,1,0.0,0.0,70,0.00,FEW,SKC,0.00,WeatherDisplay:10.37,2013-02-16 14:00:00,
2013-02-16 15:05:00,45.7,36.5,30.14,North,1,0.0,0.0,70,0.00,FEW,SKC,0.00,WeatherDisplay:10.37,2013-02-16 14:05:00,
2013-02-16 15:10:00,45.5,36.3,30.14,North,1,0.0,0.0,70,0.00,FEW,SKC,0.00,WeatherDisplay:10.37,2013-02-16 14:10:00,
2013-02-16 15:15:00,45.3,36.1,30.14,North,1,0.0,0.0,70,0.00,FEW,SKC,0.00,WeatherDisplay:10.37,2013-02-16 14:15:00,
2013-02-16 15:20:00,45.3,36.1,30.14,North,1,0.0,0.0,70,0.00,FEW,SKC,0.00,WeatherDisplay:10.37,2013-02-16 14:20:00,
2013-02-16 15:25:00,45.3,36.1,30.14,North,1,0.0,0.0,70,0.00,FEW,SKC,0.00,WeatherDisplay:10.37,2013-02-16 14:25:00,
2013-02-16 15:35:00,45.0,35.8,30.14,North,1,0.0,0.0,70,0.00,FEW,SKC,0.00,WeatherDisplay:10.37,2013-02-16 14:35:00,
2013-02-16 15:40:00,44.8,35.6,30.14,North,1,0.0,0.0,70,0.00,FEW,SKC,0.00,WeatherDisplay:10.37,2013-02-16 14:40:00,
2013-02-16 15:45:00,44.4,35.2,30.14,North,1,0.0,0.0,70,0.00,FEW,SKC,0.00,WeatherDisplay:10.37,2013-02-16 14:45:00,
2013-02-16 15:50:00,44.4,35.2,30.14,North,1,0.0,0.0,70,0.00,FEW,SKC,0.00,WeatherDisplay:10.37,2013-02-16 14:50:00,
2013-02-16 16:00:00,44.1,34.9,30.14,North,1,0.0,0.0,70,0.00,FEW,SKC,0.00,WeatherDisplay:10.37,2013-02-16 15:00:00,
2013-02-16 16:05:00,43.9,34.7,30.14,North,1,0.0,0.0,70,0.00,FEW,SKC,0.00,WeatherDisplay:10.37,2013-02-16 15:05:00,
2013-02-16 16:15:00,43.5,34.4,30.14,North,1,0.0,0.0,70,0.00,FEW,SKC,0.00,WeatherDisplay:10.37,2013-02-16 15:15:00,
2013-02-16 16:20:00,43.3,34.6,30.14,North,1,0.0,0.0,71,0.00,FEW,SKC,0.00,WeatherDisplay:10.37,2013-02-16 15:20:00,
2013-02-16 16:25:00,43.2,34.4,30.13,North,1,0.0,0.0,71,0.00,FEW,SKC,0.00,WeatherDisplay:10.37,2013-02-16 15:25:00,
2013-02-16 16:30:00,43.0,34.6,30.14,North,1,0.0,0.0,72,0.00,FEW,SKC,0.00,WeatherDisplay:10.37,2013-02-16 15:30:00,
2013-02-16 16:40:00,42.6,34.2,30.14,North,1,0.0,0.0,72,0.00,FEW,SKC,0.00,WeatherDisplay:10.37,2013-02-16 15:40:00,
2013-02-16 16:45:00,42.6,34.2,30.14,North,1,0.0,0.0,72,0.00,CLR,SKC,0.00,WeatherDisplay:10.37,2013-02-16 15:45:00,
2013-02-16 16:50:00,42.4,34.4,30.14,North,1,0.0,0.0,73,0.00,CLR,SKC,0.00,WeatherDisplay:10.37,2013-02-16 15:50:00,
2013-02-16 17:00:00,42.1,34.0,30.14,North,1,0.0,0.0,73,0.00,CLR,SKC,0.00,WeatherDisplay:10.37,2013-02-16 16:00:00,
2013-02-16 17:05:00,41.7,33.7,30.14,North,1,0.0,0.0,73,0.00,CLR,SKC,0.00,WeatherDisplay:10.37,2013-02-16 16:05:00,
2013-02-16 17:10:00,41.4,33.4,30.14,North,1,0.0,0.0,73,0.00,CLR,SKC,0.00,WeatherDisplay:10.37,2013-02-16 16:10:00,
2013-02-16 17:20:00,40.8,33.2,30.14,North,1,0.0,0.0,74,0.00,CLR,SKC,0.00,WeatherDisplay:10.37,2013-02-16 16:20:00,
2013-02-16 17:30:00,39.9,32.3,30.15,North,1,0.0,0.0,74,0.00,CLR,SKC,0.00,WeatherDisplay:10.37,2013-02-16 16:30:00,
2013-02-16 17:40:00,39.0,31.8,30.15,North,1,0.0,0.0,75,0.00,CLR,SKC,0.00,WeatherDisplay:10.37,2013-02-16 16:40:00,
2013-02-16 17:50:00,38.8,31.9,30.14,North,1,0.0,0.0,76,0.00,CLR,SKC,0.00,WeatherDisplay:10.37,2013-02-16 16:50:00,
2013-02-16 18:00:00,38.1,31.2,30.15,North,1,0.0,0.0,76,0.00,CLR,SKC,0.00,WeatherDisplay:10.37,2013-02-16 17:00:00,
2013-02-16 18:05:00,37.9,31.4,30.15,North,1,0.0,0.0,77,0.00,CLR,SKC,0.00,WeatherDisplay:10.37,2013-02-16 17:05:00,
2013-02-16 18:10:00,37.9,31.0,30.15,North,1,0.0,0.0,76,0.00,CLR,SKC,0.00,WeatherDisplay:10.37,2013-02-16 17:10:00,
2013-02-16 18:20:00,37.6,31.0,30.15,North,1,0.0,0.0,77,0.00,CLR,SKC,0.00,WeatherDisplay:10.37,2013-02-16 17:20:00,
2013-02-16 18:25:00,37.6,31.0,30.15,North,1,0.0,0.0,77,0.00,CLR,SKC,0.00,WeatherDisplay:10.37,2013-02-16 17:25:00,
2013-02-16 18:30:00,37.2,30.7,30.15,North,1,0.0,0.0,77,0.00,CLR,SKC,0.00,WeatherDisplay:10.37,2013-02-16 17:30:00,
2013-02-16 18:40:00,36.7,30.1,30.15,North,1,0.0,0.0,77,0.00,CLR,SKC,0.00,WeatherDisplay:10.37,2013-02-16 17:40:00,
2013-02-16 18:45:00,36.6,30.4,30.15,North,1,0.0,0.0,78,0.00,CLR,SKC,0.00,WeatherDisplay:10.37,2013-02-16 17:45:00,
2013-02-16 18:50:00,36.3,30.1,30.16,North,1,0.0,0.0,78,0.00,CLR,SKC,0.00,WeatherDisplay:10.37,2013-02-16 17:50:00,
2013-02-16 19:00:00,35.6,29.7,30.16,North,1,0.0,0.0,79,0.00,CLR,SKC,0.00,WeatherDisplay:10.37,2013-02-16 18:00:00,
2013-02-16 19:05:00,35.4,29.6,30.16,North,1,0.0,0.0,79,0.00,CLR,SKC,0.00,WeatherDisplay:10.37,2013-02-16 18:05:00,
2013-02-16 19:10:00,35.4,29.6,30.16,North,1,0.0,0.0,79,0.00,CLR,SKC,0.00,WeatherDisplay:10.37,2013-02-16 18:10:00,
2013-02-16 19:20:00,35.2,29.7,30.16,North,1,0.0,0.0,80,0.00,CLR,SKC,0.00,WeatherDisplay:10.37,2013-02-16 18:20:00,
2013-02-16 19:25:00,34.9,29.3,30.16,North,1,0.0,0.0,80,0.00,CLR,SKC,0.00,WeatherDisplay:10.37,2013-02-16 18:25:00,
2013-02-16 19:35:00,34.6,29.3,30.16,North,1,0.0,0.0,81,0.00,CLR,SKC,0.00,WeatherDisplay:10.37,2013-02-16 18:35:00,
2013-02-16 19:40:00,34.5,29.3,30.16,North,1,0.0,0.0,81,0.00,CLR,SKC,0.00,WeatherDisplay:10.37,2013-02-16 18:40:00,
2013-02-16 19:50:00,34.2,28.9,30.17,North,1,0.0,0.0,81,0.00,CLR,SKC,0.00,WeatherDisplay:10.37,2013-02-16 18:50:00,
2013-02-16 19:55:00,34.0,29.1,30.16,North,1,0.0,0.0,82,0.00,CLR,SKC,0.00,WeatherDisplay:10.37,2013-02-16 18:55:00,
2013-02-16 20:05:00,33.3,28.4,30.16,North,1,0.0,0.0,82,0.00,CLR,SKC,0.00,WeatherDisplay:10.37,2013-02-16 19:05:00,
2013-02-16 20:15:00,33.1,28.2,30.16,North,1,0.0,0.0,82,0.00,CLR,SKC,0.00,WeatherDisplay:10.37,2013-02-16 19:15:00,
2013-02-16 20:25:00,32.7,28.1,30.16,North,1,0.0,0.0,83,0.00,CLR,SKC,0.00,WeatherDisplay:10.37,2013-02-16 19:25:00,
2013-02-16 20:30:00,32.4,27.8,30.16,North,1,0.0,0.0,83,0.00,CLR,SKC,0.00,WeatherDisplay:10.37,2013-02-16 19:30:00,
2013-02-16 20:35:00,32.4,27.8,30.16,North,1,0.0,0.0,83,0.00,CLR,SKC,0.00,WeatherDisplay:10.37,2013-02-16 19:35:00,
2013-02-16 20:45:00,32.0,27.7,30.16,North,1,0.0,0.0,84,0.00,CLR,SKC,0.00,WeatherDisplay:10.37,2013-02-16 19:45:00,
2013-02-16 20:50:00,31.8,27.5,30.16,North,1,0.0,0.0,84,0.00,CLR,SKC,0.00,WeatherDisplay:10.37,2013-02-16 19:50:00,
2013-02-16 21:00:00,31.3,27.0,30.16,North,1,0.0,0.0,84,0.00,FEW,SKC,0.00,WeatherDisplay:10.37,2013-02-16 20:00:00,
2013-02-16 21:05:00,31.2,26.9,30.16,North,1,0.0,0.0,84,0.00,FEW,SKC,0.00,WeatherDisplay:10.37,2013-02-16 20:05:00,
2013-02-16 21:10:00,30.7,26.8,30.16,North,1,0.0,0.0,85,0.00,FEW,SKC,0.00,WeatherDisplay:10.37,2013-02-16 20:10:00,
2013-02-16 21:20:00,30.4,26.4,30.17,North,1,0.0,0.0,85,0.00,CLR,SKC,0.00,WeatherDisplay:10.37,2013-02-16 20:20:00,
2013-02-16 21:25:00,30.2,26.2,30.17,North,1,0.0,0.0,85,0.00,CLR,SKC,0.00,WeatherDisplay:10.37,2013-02-16 20:25:00,
2013-02-16 21:30:00,30.0,26.1,30.16,North,1,0.0,0.0,85,0.00,CLR,SKC,0.00,WeatherDisplay:10.37,2013-02-16 20:30:00,
2013-02-16 21:40:00,29.8,25.9,30.17,North,1,0.0,0.0,85,0.00,CLR,SKC,0.00,WeatherDisplay:10.37,2013-02-16 20:40:00,
2013-02-16 21:50:00,29.7,26.0,30.17,North,1,0.0,0.0,86,0.00,CLR,SKC,0.00,WeatherDisplay:10.37,2013-02-16 20:50:00,
2013-02-16 22:00:00,29.4,25.7,30.17,North,1,0.0,0.0,86,0.00,CLR,SKC,0.00,WeatherDisplay:10.37,2013-02-16 21:00:00,
2013-02-16 22:05:00,29.7,26.0,30.16,North,1,0.0,0.0,86,0.00,CLR,SKC,0.00,WeatherDisplay:10.37,2013-02-16 21:05:00,
2013-02-16 22:15:00,29.5,26.1,30.17,North,1,0.0,0.0,87,0.00,CLR,SKC,0.00,WeatherDisplay:10.37,2013-02-16 21:15:00,
2013-02-16 22:20:00,29.5,26.1,30.17,North,1,0.0,0.0,87,0.00,CLR,SKC,0.00,WeatherDisplay:10.37,2013-02-16 21:20:00,
2013-02-16 22:30:00,28.9,25.6,30.17,North,1,0.0,0.0,87,0.00,SCT,SKC,0.00,WeatherDisplay:10.37,2013-02-16 21:30:00,
2013-02-16 22:40:00,29.1,25.7,30.17,North,1,0.0,0.0,87,0.00,SCT,SKC,0.00,WeatherDisplay:10.37,2013-02-16 21:40:00,
2013-02-16 22:50:00,29.2,25.9,30.17,North,1,0.0,0.0,87,0.00,SCT,SKC,0.00,WeatherDisplay:10.37,2013-02-16 21:50:00,
2013-02-16 23:00:00,29.5,26.1,30.17,North,1,0.0,0.0,87,0.00,FEW,SKC,0.00,WeatherDisplay:10.37,2013-02-16 22:00:00,
2013-02-16 23:05:00,29.5,26.1,30.17,North,1,0.0,0.0,87,0.00,FEW,SKC,0.00,WeatherDisplay:10.37,2013-02-16 22:05:00,
2013-02-16 23:15:00,29.8,26.7,30.17,North,1,0.0,0.0,88,0.00,FEW,SKC,0.00,WeatherDisplay:10.37,2013-02-16 22:15:00,
2013-02-16 23:20:00,30.0,26.9,30.17,North,1,0.0,0.0,88,0.00,FEW,SKC,0.00,WeatherDisplay:10.37,2013-02-16 22:20:00,
2013-02-16 23:30:00,30.0,26.9,30.17,North,1,0.0,0.0,88,0.00,SCT,SKC,0.00,WeatherDisplay:10.37,2013-02-16 22:30:00,
2013-02-16 23:35:00,30.2,27.1,30.17,North,1,0.0,0.0,88,0.00,SCT,SKC,0.00,WeatherDisplay:10.37,2013-02-16 22:35:00,
2013-02-16 23:40:00,30.4,27.3,30.17,North,1,0.0,0.0,88,0.00,SCT,SKC,0.00,WeatherDisplay:10.37,2013-02-16 22:40:00,
2013-02-16 23:50:00,30.7,27.6,30.17,North,1,0.0,0.0,88,0.00,SCT,SKC,0.00,WeatherDisplay:10.37,2013-02-16 22:50:00,
2013-02-16 23:55:00,30.7,27.6,30.17,North,1,0.0,0.0,88,0.00,SCT,SKC,0.00,WeatherDisplay:10.37,2013-02-16 22:55:00,